Date String (YYYY-MM-DD hh:mm:ss) UTC,Instrument flags,Ambient pressure (hPa),Sample flow (lpm),Bypass flow (lpm),Sample temperature (°C),Ambient temperature (°C),ASC tube jacket temperature (°C),LED temperature (°C),Box temperature (°C),Sample RH (%),Span deviation,Mass concentration (μg/m³),Mass concentration (μg/m³),Mass concentration (μg/m³)
DateTimeUTC,F1_M11,P_M11,Q1_M11,Q2_M11,T1_M11,T2_M11,T3_M11,T4_M11,T5_M11,U1_M11,ZSPAN_M11,X2_M11,X0_M11,X1_M11
2022-12-28 07:00:00,,0806.9,5.01,0.00,24.3,22.8,00.0,33.3,26.0,14.5,0000.0,0000.16,0001.64,0000.04
2022-12-28 07:01:00,,0806.9,5.00,0.00,24.3,22.8,00.0,33.3,25.9,14.1,0000.0,0000.15,0001.16,0000.04
2022-12-28 07:02:00,,0806.9,5.00,0.00,24.3,22.8,00.0,33.3,26.0,13.9,0000.0,0000.14,0000.42,0000.04
2022-12-28 07:03:00,,0806.9,5.00,0.00,24.3,22.8,00.0,33.3,26.0,13.9,0000.0,0000.14,0000.43,0000.04
2022-12-28 07:04:00,,0807.0,5.00,0.00,24.3,22.9,00.0,33.3,26.0,14.0,0000.0,0000.13,0000.40,0000.04
2022-12-28 07:05:00,,0807.0,5.00,0.00,24.3,22.9,00.0,33.2,26.0,14.2,0000.0,0000.12,0000.37,0000.04
2022-12-28 07:06:00,,0807.0,5.00,0.00,24.3,22.9,00.0,33.2,26.0,14.2,0000.0,0000.12,0000.34,0000.04
2022-12-28 07:07:00,,0807.0,5.00,0.00,24.3,22.9,00.0,33.2,26.0,14.3,0000.0,0000.11,0000.33,0000.04
2022-12-28 07:08:00,,0806.8,5.00,0.00,24.3,22.9,00.0,33.2,26.0,14.2,0000.0,0000.13,0000.36,0000.04
2022-12-28 07:09:00,,0806.8,5.00,0.00,24.3,22.9,00.0,33.2,26.0,14.3,0000.0,0000.12,0000.29,0000.04
2022-12-28 07:10:00,,0806.8,5.00,0.00,24.3,22.9,00.0,33.2,26.0,14.2,0000.0,0000.12,0000.25,0000.04
2022-12-28 07:11:00,,0806.8,5.00,0.00,24.3,22.9,00.0,33.2,26.0,14.1,0000.0,0000.13,0000.32,0000.04
2022-12-28 07:12:00,,0806.8,5.01,0.00,24.3,22.9,00.0,33.2,26.1,14.1,0000.0,0000.13,0000.32,0000.04
2022-12-28 07:13:00,,0806.7,5.01,0.00,24.3,22.9,00.0,33.2,26.0,14.1,0000.0,0000.13,0000.46,0000.04
2022-12-28 07:14:00,,0806.7,5.00,0.00,24.3,22.9,00.0,33.2,26.0,14.0,0000.0,0000.12,0000.47,0000.04
2022-12-28 07:15:00,,0806.7,5.01,0.00,24.3,22.8,00.0,33.2,26.0,13.9,0000.0,0000.12,0000.47,0000.04
2022-12-28 07:16:00,,0806.7,5.00,0.00,24.3,22.8,00.0,33.2,26.1,14.0,0000.0,0000.12,0000.46,0000.04
2022-12-28 07:17:00,,0806.6,5.00,0.00,24.3,22.8,00.0,33.2,26.0,14.1,0000.0,0000.11,0000.58,0000.03
2022-12-28 07:18:00,,0806.5,4.99,0.00,24.3,22.8,00.0,33.2,26.0,14.1,0000.0,0000.11,0000.60,0000.03
2022-12-28 07:19:00,,0806.6,5.00,0.00,24.3,22.8,00.0,33.2,26.0,14.1,0000.0,0000.09,0000.57,0000.03
2022-12-28 07:20:00,,0806.4,5.00,0.00,24.3,22.8,00.0,33.2,25.9,14.3,0000.0,0000.12,0000.75,0000.03
2022-12-28 07:21:00,,0806.4,4.99,0.00,24.2,22.8,00.0,33.2,25.9,14.0,0000.0,0000.11,0002.49,0000.03
2022-12-28 07:22:00,,0806.6,5.01,0.00,24.2,22.7,00.0,33.2,25.9,14.0,0000.0,0000.09,0002.39,0000.03
2022-12-28 07:23:00,,0806.6,5.00,0.00,24.2,22.7,00.0,33.2,25.9,14.1,0000.0,0000.09,0002.39,0000.04
2022-12-28 07:24:00,,0806.6,5.00,0.00,24.2,22.7,00.0,33.2,25.9,14.3,0000.0,0000.08,0002.22,0000.04
2022-12-28 07:25:00,,0806.5,4.99,0.00,24.2,22.7,00.0,33.2,25.9,14.3,0000.0,0000.08,0002.18,0000.04
2022-12-28 07:26:00,,0806.4,4.99,0.00,24.2,22.7,00.0,33.2,26.0,14.2,0000.0,0000.08,0002.19,0000.04
2022-12-28 07:27:00,,0806.4,4.99,0.00,24.2,22.7,00.0,33.2,26.0,14.4,0000.0,0000.11,0002.26,0000.04
2022-12-28 07:28:00,,0806.4,5.00,0.00,24.2,22.7,00.0,33.1,26.0,14.3,0000.0,0000.12,0002.71,0000.05
2022-12-28 07:29:00,,0806.4,5.00,0.00,24.2,22.7,00.0,33.1,25.9,14.4,0000.0,0000.13,0002.90,0000.05
2022-12-28 07:30:00,,0806.4,5.00,0.00,24.2,22.6,00.0,33.1,26.0,14.4,0000.0,0000.14,0002.91,0000.05
2022-12-28 07:31:00,,0806.5,5.01,0.00,24.2,22.6,00.0,33.1,25.9,14.3,0000.0,0000.11,0002.62,0000.05
2022-12-28 07:32:00,,0806.5,5.00,0.00,24.2,22.6,00.0,33.1,25.9,14.5,0000.0,0000.11,0000.95,0000.05
2022-12-28 07:33:00,,0806.5,5.00,0.00,24.2,22.7,00.0,33.1,25.8,14.6,0000.0,0000.11,0000.95,0000.05
2022-12-28 07:34:00,,0806.5,5.00,0.00,24.2,22.6,00.0,33.1,25.9,14.4,0000.0,0000.11,0000.95,0000.05
2022-12-28 07:35:00,,0806.6,5.00,0.00,24.1,22.6,00.0,33.1,25.8,14.2,0000.0,0000.11,0000.95,0000.05
2022-12-28 07:36:00,,0806.6,5.01,0.00,24.1,22.6,00.0,33.1,25.7,14.3,0000.0,0000.11,0000.96,0000.05
2022-12-28 07:37:00,,0806.6,5.00,0.00,24.1,22.6,00.0,33.1,25.8,14.5,0000.0,0000.12,0000.98,0000.05
2022-12-28 07:38:00,,0806.6,5.01,0.00,24.1,22.6,00.0,33.1,25.7,14.3,0000.0,0000.09,0000.91,0000.05
2022-12-28 07:39:00,,0806.7,4.99,0.00,24.1,22.6,00.0,33.1,25.7,14.4,0000.0,0000.08,0000.29,0000.05
2022-12-28 07:40:00,,0806.7,5.00,0.00,24.1,22.6,00.0,33.0,25.7,14.4,0000.0,0000.08,0000.12,0000.05
2022-12-28 07:41:00,,0806.7,4.99,0.00,24.1,22.6,00.0,33.0,25.7,14.5,0000.0,0000.07,0000.12,0000.05
2022-12-28 07:42:00,,0806.6,5.01,0.00,24.1,22.6,00.0,33.0,25.7,14.3,0000.0,0000.08,0000.14,0000.05
2022-12-28 07:43:00,,0806.6,5.00,0.00,24.1,22.6,00.0,33.0,25.7,14.2,0000.0,0000.10,0000.17,0000.06
2022-12-28 07:44:00,,0806.7,5.01,0.00,24.1,22.6,00.0,33.0,25.7,14.1,0000.0,0000.11,0000.28,0000.06
2022-12-28 07:45:00,,0806.8,4.99,0.00,24.1,22.6,00.0,33.0,25.6,14.2,0000.0,0000.11,0001.21,0000.06
2022-12-28 07:46:00,,0806.8,4.99,0.00,24.1,22.6,00.0,33.0,25.7,14.1,0000.0,0000.13,0001.29,0000.05
2022-12-28 07:47:00,,0806.8,5.00,0.00,24.1,22.6,00.0,33.0,25.7,14.1,0000.0,0000.13,0001.30,0000.05
2022-12-28 07:48:00,,0806.7,5.00,0.00,24.1,22.6,00.0,33.0,25.7,14.1,0000.0,0000.12,0001.29,0000.05
2022-12-28 07:49:00,,0806.8,5.00,0.00,24.1,22.6,00.0,33.0,25.7,14.1,0000.0,0000.13,0001.43,0000.05
2022-12-28 07:50:00,,0806.8,5.00,0.00,24.1,22.6,00.0,33.0,25.8,14.3,0000.0,0000.15,0001.50,0000.05
2022-12-28 07:51:00,,0806.8,5.00,0.00,24.1,22.6,00.0,33.0,25.7,14.3,0000.0,0000.15,0001.73,0000.05
2022-12-28 07:52:00,,0806.8,4.99,0.00,24.1,22.7,00.0,33.0,25.7,14.3,0000.0,0000.18,0001.78,0000.05
2022-12-28 07:53:00,,0806.8,5.00,0.00,24.1,22.7,00.0,33.0,25.8,14.1,0000.0,0000.17,0001.77,0000.05
2022-12-28 07:54:00,,0806.8,5.00,0.00,24.1,22.7,00.0,33.0,25.9,14.1,0000.0,0000.16,0001.77,0000.05
2022-12-28 07:55:00,,0806.8,5.01,0.00,24.1,22.7,00.0,33.0,25.9,14.2,0000.0,0000.16,0001.67,0000.05
2022-12-28 07:56:00,,0806.5,5.00,0.00,24.1,22.8,00.0,33.0,25.9,14.2,0000.0,0000.16,0000.84,0000.05
2022-12-28 07:57:00,,0806.4,5.01,0.00,24.1,22.7,00.0,33.0,25.9,14.2,0000.0,0000.14,0000.77,0000.05
2022-12-28 07:58:00,,0806.3,5.00,0.00,24.1,22.7,00.0,33.0,25.9,14.3,0000.0,0000.15,0000.79,0000.06
2022-12-28 07:59:00,,0806.3,5.00,0.00,24.1,22.6,00.0,33.0,25.9,14.1,0000.0,0000.15,0000.76,0000.06
